This is the latest recevied weather packets stored in our database for station/object F5SAW-10. If no packets are shown the sender has not sent any weather packets the latest 10 day(s).
| Time | Temp. | Humidity | Pressure | Rain* | Wind** | Luminosity | Snow |
|---|---|---|---|---|---|---|---|
| 1777550474 | 27.78° C | 39% | 982.3 hPa | - | - | - | - |
| 1777549574 | 27.78° C | 40% | 982.3 hPa | - | - | - | - |
| 1777548674 | 27.78° C | 40% | 982.2 hPa | - | - | - | - |
| 1777547774 | 27.78° C | 40% | 982.3 hPa | - | - | - | - |
| 1777546874 | 27.78° C | 40% | 982.2 hPa | - | - | - | - |
| 1777545973 | 27.22° C | 40% | 982.1 hPa | - | - | - | - |
| 1777545073 | 27.22° C | 40% | 981.9 hPa | - | - | - | - |
| 1777544173 | 27.22° C | 40% | 981.8 hPa | - | - | - | - |
| 1777543273 | 27.22° C | 41% | 982.1 hPa | - | - | - | - |
| 1777542373 | 27.22° C | 40% | 981.8 hPa | - | - | - | - |
| 1777541473 | 27.22° C | 40% | 981.9 hPa | - | - | - | - |
| 1777540573 | 27.22° C | 40% | 981.8 hPa | - | - | - | - |
| 1777539673 | 27.22° C | 41% | 981.7 hPa | - | - | - | - |
| 1777538773 | 27.22° C | 41% | 981.4 hPa | - | - | - | - |
| 1777537873 | 27.22° C | 40% | 981.2 hPa | - | - | - | - |
| 1777536972 | 27.22° C | 41% | 981 hPa | - | - | - | - |
| 1777536072 | 27.22° C | 41% | 981 hPa | - | - | - | - |
| 1777535172 | 27.22° C | 41% | 980.7 hPa | - | - | - | - |
| 1777534272 | 27.22° C | 41% | 980.6 hPa | - | - | - | - |
| 1777533372 | 27.22° C | 41% | 980.8 hPa | - | - | - | - |
| 1777532472 | 27.22° C | 42% | 980.6 hPa | - | - | - | - |
| 1777531572 | 26.67° C | 42% | 980.2 hPa | - | - | - | - |
| 1777530672 | 26.67° C | 44% | 979.8 hPa | - | - | - | - |
| 1777529771 | 25.56° C | 49% | 979.8 hPa | - | - | - | - |
| 1777528871 | 20° C | 61% | 979.8 hPa | - | - | - | - |
* Rain since midnight (hover to see other rain measurements)
** Current wind speed in m/s (hover to see current wind gust speed)